Weather History for LTBS - December, 2013

Change the Weather History Date:

Thursday, December 26, 2013

  Actual Average Record
Temperature  
Mean Temperature 52 °F -  
Max Temperature 64 °F 58 °F 69 °F (2010)
Min Temperature 39 °F 41 °F 32 °F (2005)
Degree Days  
Heating Degree Days 14    
Growing Degree Days 2 (Base 50)    
Moisture  
Dew Point 40 °F    
Average Humidity 70    
Maximum Humidity 100    
Minimum Humidity 28    
Precipitation  
Precipitation 0.00 in - - ()
Sea Level Pressure  
Sea Level Pressure 30.10 in    
Wind  
Wind Speed 5 mph ()    
Max Wind Speed 9 mph    
Max Gust Speed -    
Visibility 6.1 miles    
Events      
Averages and records for this station are not official NWS values.
T = Trace of Precipitation, MM = Missing Value Source: Averaged Metar Reports

Daily Weather History Graph

Daily Weather History Graph

Search for Another Location

Airport or City:

Trip Planner

Search our weather history database for the weather conditions in past years. The results will help you decide how hot, cold, wet, or windy it might be!

Date:

Astronomy

Dec. 26, 2013 Rise Set
Actual Time 7:15 AM EET 4:55 PM EET
Civil Twilight 6:46 AM EET 5:24 PM EET
Nautical Twilight 6:14 AM EET 5:56 PM EET
Astronomical Twilight 5:42 AM EET 6:28 PM EET
Moon 12:31 AM EET (12/26) 12:13 PM EET (12/26)
Length of Visible Light 10h 37m
Length of Day
9h 39m
Last Quarter, 41% of the Moon is Illuminated
Dec 26
Last Quarter
Jan 1
New
Jan 8
First Quarter
Jan 16
Full
Jan 24
Last Quarter

Hourly Weather History & Observations

Time (EET) Temp. Windchill Dew Point Humidity Pressure Visibility Wind Dir Wind Speed Gust Speed Precip Events Conditions
12:20 AM 44.6 °F 41.4 °F 39.2 °F 81% 30.12 in - ENE 5.8 mph - N/A   Clear
12:50 AM 44.6 °F 40.2 °F 39.2 °F 81% 30.12 in - East 8.1 mph - N/A   Clear
1:20 AM 44.6 °F 40.7 °F 39.2 °F 81% 30.12 in - ENE 6.9 mph - N/A   Clear
1:50 AM 42.8 °F 38.6 °F 41.0 °F 93% 30.12 in - East 6.9 mph - N/A   Clear
2:00 AM 43 °F - 40 °F 84% 30.13 in 6 mi East 6.9 mph - -  
2:20 AM 42.8 °F 39.3 °F 39.2 °F 87% 30.12 in - ENE 5.8 mph - N/A   Clear
2:50 AM 44.6 °F 41.4 °F 39.2 °F 81% 30.12 in - ENE 5.8 mph - N/A   Clear
3:20 AM 41.0 °F 37.1 °F 41.0 °F 100% 30.12 in - East 5.8 mph - N/A   Clear
3:50 AM 42.8 °F 38.6 °F 37.4 °F 81% 30.12 in - East 6.9 mph - N/A   Clear
4:20 AM 42.8 °F 38.6 °F 37.4 °F 81% 30.12 in - ENE 6.9 mph - N/A   Clear
4:50 AM 44.6 °F 40.7 °F 39.2 °F 81% 30.12 in - ENE 6.9 mph - N/A   Clear
5:00 AM 44 °F - 38 °F 73% 30.13 in 6 mi ENE 6.9 mph - -  
5:20 AM 42.8 °F 38.6 °F 37.4 °F 81% 30.12 in - ENE 6.9 mph - N/A   Clear
5:50 AM 42.8 °F 37.5 °F 35.6 °F 76% 30.12 in - NE 9.2 mph - N/A   Clear
6:20 AM 41.0 °F 36.4 °F 35.6 °F 81% 30.12 in - NE 6.9 mph - N/A   Clear
6:50 AM 41.0 °F 37.1 °F 37.4 °F 87% 30.12 in - East 5.8 mph - N/A   Clear
7:20 AM 42.8 °F 38.6 °F 35.6 °F 76% 30.12 in - ENE 6.9 mph - N/A   Clear
7:50 AM 41.0 °F 36.4 °F 37.4 °F 87% 30.12 in - NE 6.9 mph - N/A   Clear
8:00 AM 41 °F - 37 °F 79% 30.14 in 6 mi NE 6.9 mph - -  
8:20 AM 42.8 °F 39.3 °F 37.4 °F 81% 30.12 in - NE 5.8 mph - N/A   Clear
8:50 AM 46.4 °F 44.3 °F 39.2 °F 76% 30.12 in 6.2 mi ENE 4.6 mph - N/A   Partly Cloudy
9:20 AM 50.0 °F - 39.2 °F 66% 30.12 in 6.2 mi ENE 6.9 mph - N/A   Partly Cloudy
9:50 AM 51.8 °F - 39.2 °F 62% 30.12 in 6.2 mi NE 6.9 mph - N/A   Partly Cloudy
10:20 AM 53.6 °F - 41.0 °F 62% 30.12 in 6.2 mi ENE 5.8 mph - N/A   Partly Cloudy
10:50 AM 57.2 °F - 39.2 °F 51% 30.12 in 6.2 mi NE 5.8 mph - N/A   Partly Cloudy
11:00 AM 56 °F - 39 °F 42% 30.13 in 6 mi NE 5.8 mph - -   Scattered Clouds
11:20 AM 59.0 °F - 39.2 °F 48% 30.12 in 6.2 mi NNE 5.8 mph - N/A   Partly Cloudy
11:50 AM 60.8 °F - 39.2 °F 45% 30.09 in 6.2 mi NNE 4.6 mph - N/A   Partly Cloudy
12:20 PM 62.6 °F - 39.2 °F 42% 30.09 in 6.2 mi Variable 2.3 mph - N/A   Partly Cloudy
12:50 PM 64.4 °F - 39.2 °F 40% 30.06 in 6.2 mi Variable 1.2 mph - N/A   Partly Cloudy
1:20 PM 64.4 °F - 41.0 °F 42% 30.06 in 6.2 mi West 3.5 mph - N/A   Partly Cloudy
1:50 PM 64.4 °F - 39.2 °F 40% 30.06 in 6.2 mi West 4.6 mph - N/A   Partly Cloudy
2:00 PM 65 °F - 40 °F 28% 30.08 in 6 mi West 4.6 mph - -   Scattered Clouds
2:20 PM 64.4 °F - 37.4 °F 37% 30.06 in 6.2 mi West 4.6 mph - N/A   Partly Cloudy
2:50 PM 64.4 °F - 39.2 °F 40% 30.06 in 6.2 mi SW 4.6 mph - N/A   Partly Cloudy
3:20 PM 64.4 °F - 42.8 °F 45% 30.06 in 6.2 mi SW 2.3 mph - N/A   Partly Cloudy
3:50 PM 64.4 °F - 44.6 °F 49% 30.06 in 6.2 mi SW 3.5 mph - N/A   Partly Cloudy
4:20 PM 62.6 °F - 44.6 °F 52% 30.06 in 6.2 mi WSW 4.6 mph - N/A   Partly Cloudy
4:50 PM 57.2 °F - 48.2 °F 72% 30.06 in 6.2 mi Variable 2.3 mph - N/A   Partly Cloudy
5:00 PM 57 °F - 48 °F 64% 30.07 in 6 mi 2.3 mph - -   Scattered Clouds
5:20 PM 53.6 °F - 46.4 °F 77% 30.06 in - East 4.6 mph - N/A   Clear
5:50 PM 51.8 °F - 44.6 °F 76% 30.06 in - East 4.6 mph - N/A   Clear
6:20 PM 50.0 °F - 42.8 °F 76% 30.06 in - ENE 3.5 mph - N/A   Clear
6:50 PM 50.0 °F - 44.6 °F 82% 30.06 in - NNE 4.6 mph - N/A   Clear
7:20 PM 48.2 °F - 42.8 °F 82% 30.09 in - NNE 4.6 mph - N/A   Clear
7:50 PM 48.2 °F - 42.8 °F 82% 30.09 in - ENE 4.6 mph - N/A   Clear
8:00 PM 49 °F - 43 °F 74% 30.10 in 6 mi ENE 4.6 mph - -  
8:20 PM 50.0 °F - 42.8 °F 76% 30.09 in - ENE 4.6 mph - N/A   Clear
8:50 PM 48.2 °F - 42.8 °F 82% 30.09 in - ENE 4.6 mph - N/A   Clear
9:20 PM 46.4 °F 43.5 °F 42.8 °F 87% 30.09 in - ENE 5.8 mph - N/A   Clear
9:50 PM 48.2 °F - 42.8 °F 82% 30.09 in - ENE 6.9 mph - N/A   Clear
10:20 PM 44.6 °F 41.4 °F 41.0 °F 87% 30.09 in - NE 5.8 mph - N/A   Clear
10:50 PM 44.6 °F 40.7 °F 41.0 °F 87% 30.09 in - NNE 6.9 mph - N/A   Clear
11:00 PM 45 °F - 40 °F 78% 30.11 in 6 mi NNE 6.9 mph - -  
11:20 PM 44.6 °F 40.7 °F 39.2 °F 81% 30.09 in - NE 6.9 mph - N/A   Clear
11:50 PM 44.6 °F 40.7 °F 39.2 °F 81% 30.09 in - ENE 6.9 mph - N/A   Clear